This demonstration page uses our WeatherBlox Daily Observations layout. Learn more.

Left ArrowRight Arrow

Hourly Observations for June 8, 2017

Temp ( °F °C ) Dew Point ( °F °C ) Humidity (%) Winds ( mph kmh ) Pressure ( in mb ) Visibility ( mi km ) Precip ( " mm )
12:06 am 00:06 Clear 55 13 41 5 59 59 NE 3 6 30.06 1018 10 16 N/A
12:26 am 00:26 Clear 55 13 41 5 59 59 NNE 3 6 30.06 1018 10 16 N/A
12:47 am 00:47 Clear 54 12 41 5 63 63 N 3 6 30.09 1019 10 16 N/A
1:06 am 01:06 Clear 52 11 43 6 72 72 N 5 7 30.09 1019 10 16 N/A
1:26 am 01:26 Clear 52 11 43 6 72 72 N 3 6 30.09 1019 10 16 N/A
1:46 am 01:46 Clear 52 11 43 6 72 72 N N/A 30.06 1018 10 16 N/A
2:07 am 02:07 Clear 50 10 43 6 76 76 N N/A 30.06 1018 10 16 N/A
2:26 am 02:26 Clear 50 10 43 6 76 76 N N/A 30.06 1018 10 16 N/A
2:46 am 02:46 Clear 48 9 43 6 82 82 N N/A 30.06 1018 10 16 N/A
3:06 am 03:06 Clear 50 10 43 6 76 76 N N/A 30.06 1018 10 16 N/A
3:26 am 03:26 Clear 48 9 43 6 82 82 N N/A 30.06 1018 10 16 N/A
3:46 am 03:46 Clear 50 10 43 6 76 76 NNE 5 7 30.06 1018 10 16 N/A
4:06 am 04:06 Clear 50 10 43 6 76 76 NNE 6 9 30.06 1018 10 16 N/A
4:27 am 04:27 Clear 50 10 43 6 76 76 NNE 5 7 30.06 1018 10 16 N/A
4:46 am 04:46 Clear 50 10 43 6 76 76 NNE 6 9 30.06 1018 10 16 N/A
5:06 am 05:06 Clear 50 10 43 6 76 76 NE 7 11 30.06 1018 10 16 N/A
5:27 am 05:27 Clear 50 10 43 6 76 76 NE 7 11 30.06 1018 10 16 N/A
5:46 am 05:46 Clear 50 10 43 6 76 76 NE 7 11 30.06 1018 10 16 N/A
6:07 am 06:07 Clear 50 10 45 7 82 82 ENE 7 11 30.06 1018 10 16 N/A
6:26 am 06:26 Sunny 50 10 45 7 82 82 ENE 6 9 30.06 1018 10 16 N/A
6:47 am 06:47 Sunny 50 10 45 7 82 82 ENE 7 11 30.09 1019 10 16 N/A
7:06 am 07:06 Sunny 50 10 45 7 82 82 ENE 5 7 30.09 1019 10 16 N/A
7:26 am 07:26 Sunny 52 11 46 8 82 82 NE 3 6 30.09 1019 10 16 N/A
7:46 am 07:46 Sunny 54 12 46 8 77 77 NE 5 7 30.09 1019 10 16 N/A
8:06 am 08:06 Sunny 55 13 46 8 72 72 NNE 3 6 30.06 1018 10 16 N/A
8:26 am 08:26 Sunny 57 14 48 9 72 72 N 5 7 30.06 1018 10 16 N/A
8:46 am 08:46 Sunny 59 15 48 9 68 68 NNE 6 9 30.06 1018 10 16 N/A
9:07 am 09:07 Sunny 59 15 48 9 68 68 NNE 6 9 30.06 1018 10 16 N/A
9:26 am 09:26 Sunny 61 16 48 9 63 63 NNE 7 11 30.06 1018 10 16 N/A
9:46 am 09:46 Sunny 63 17 50 10 64 64 N 5 7 30.06 1018 10 16 N/A
10:06 am 10:06 Sunny 63 17 48 9 59 59 NNE 9 15 30.06 1018 10 16 N/A
10:26 am 10:26 Sunny 64 18 48 9 56 56 NNE 8 13 30.06 1018 10 16 N/A
10:47 am 10:47 Sunny 64 18 48 9 56 56 E 8 13 30.03 1017 10 16 N/A
11:06 am 11:06 Sunny 66 19 48 9 52 52 NE 12 19 30.03 1017 10 16 N/A
11:26 am 11:26 Sunny 66 19 48 9 52 52 ENE 8 13 30.03 1017 10 16 N/A
11:47 am 11:47 Sunny 66 19 48 9 52 52 E 8 13 30.03 1017 10 16 N/A
12:06 pm 12:06 Partly Cloudy 68 20 48 9 49 49 NE 3 6 30.03 1017 10 16 N/A
12:27 pm 12:27 Partly Cloudy 68 20 48 9 49 49 NE 9 15 30.03 1017 10 16 N/A
12:46 pm 12:46 Partly Cloudy 68 20 48 9 49 49 E 8 13 30.03 1017 10 16 N/A
1:06 pm 13:06 Sunny 70 21 50 10 50 50 NE 7 11 30.00 1016 10 16 N/A
1:27 pm 13:27 Sunny 70 21 48 9 46 46 E 5 7 29.97 1015 10 16 N/A
1:46 pm 13:46 Sunny 72 22 50 10 47 47 SE 5 7 29.97 1015 10 16 N/A
2:07 pm 14:07 Partly Cloudy 72 22 48 9 44 44 N N/A 29.97 1015 10 16 N/A
2:26 pm 14:26 Sunny 72 22 50 10 47 47 ENE 8 13 29.97 1015 10 16 N/A
2:46 pm 14:46 Partly Cloudy 72 22 50 10 47 47 ENE 5 7 29.97 1015 10 16 N/A
3:06 pm 15:06 Partly Cloudy 73 23 50 10 44 44 N 5 7 29.94 1014 10 16 N/A
3:26 pm 15:26 Sunny 73 23 48 9 41 41 NNE 9 15 29.94 1014 10 16 N/A
3:47 pm 15:47 Partly Cloudy 72 22 50 10 47 47 N N/A 29.94 1014 10 16 N/A
4:06 pm 16:06 Partly Cloudy 75 24 48 9 39 39 N 5 7 29.94 1014 10 16 N/A
4:27 pm 16:27 Sunny 73 23 48 9 41 41 E 3 6 29.91 1013 10 16 N/A
4:46 pm 16:46 Partly Cloudy 75 24 48 9 39 39 N N/A 29.91 1013 10 16 N/A
5:06 pm 17:06 Partly Cloudy 75 24 48 9 39 39 N N/A 29.91 1013 10 16 N/A
5:27 pm 17:27 Sunny 75 24 46 8 36 36 NE 7 11 29.91 1013 10 16 N/A
5:46 pm 17:46 Sunny 75 24 46 8 36 36 N N/A 29.91 1013 10 16 N/A
6:07 pm 18:07 Sunny 75 24 46 8 36 36 W 3 6 29.88 1012 10 16 N/A
6:26 pm 18:26 Sunny 75 24 48 9 39 39 NE 3 6 29.88 1012 10 16 N/A
6:46 pm 18:46 Sunny 75 24 46 8 36 36 ESE 5 7 29.88 1012 10 16 N/A
7:07 pm 19:07 Sunny 75 24 48 9 39 39 N N/A 29.88 1012 10 16 N/A
7:26 pm 19:26 Sunny 75 24 48 9 39 39 N N/A 29.88 1012 10 16 N/A
7:46 pm 19:46 Sunny 75 24 48 9 39 39 W 3 6 29.88 1012 10 16 N/A
8:06 pm 20:06 Sunny 73 23 48 9 41 41 N N/A 29.88 1012 10 16 N/A
8:26 pm 20:26 Sunny 72 22 48 9 44 44 N N/A 29.88 1012 10 16 N/A
8:46 pm 20:46 Sunny 72 22 46 8 41 41 N N/A 29.88 1012 10 16 N/A
9:06 pm 21:06 Sunny 72 22 45 7 38 38 N N/A 29.88 1012 10 16 N/A
9:27 pm 21:27 Clear 68 20 45 7 43 43 N N/A 29.88 1012 10 16 N/A
9:46 pm 21:46 Clear 64 18 46 8 52 52 N N/A 29.91 1013 10 16 N/A
10:06 pm 22:06 Clear 66 19 48 9 52 52 S 3 6 29.91 1013 10 16 N/A
10:27 pm 22:27 Clear 66 19 46 8 49 49 S 5 7 29.91 1013 10 16 N/A
10:46 pm 22:46 Clear 64 18 46 8 52 52 S 5 7 29.91 1013 10 16 N/A
11:07 pm 23:07 Clear 61 16 46 8 59 59 N N/A 29.91 1013 10 16 N/A
11:26 pm 23:26 Clear 61 16 48 9 63 63 S 3 6 29.91 1013 10 16 N/A
11:46 pm 23:46 Clear 61 16 48 9 63 63 SSW 3 6 29.91 1013 10 16 N/A

Powered by AerisWeather